Location: Blandford
(50.8667°N, 2.1667°W)
Time: 23:46:58
(UTC+00:00)

Terra - Pass Details

Date: 09 April 2020
Orbit: 701 x 703 km, 98.2° (Epoch: 24 May)

Event Time Altitude Azimuth Distance (km) Brightness Sun altitude
Exits shadow 23:47:15 11° 277° (W) 2,125 4.4 -30.9°
Drops below altitude 10° 23:48:18 10° 290° (WNW) 2,179 4.6 -30.9°
Sets 23:52:37 0° 328° (NNW) 3,106 6.0 -31.0°
